Hourly Data Report for December 13, 2019

All times are specified in Local Standard Time (LST). Add 1 hour to adjust for Daylight Saving Time where and when it is observed.

KAMLOOPS A
BRITISH COLUMBIA
Current Station Operator: NAVCAN

50°42'09.000" N
120°26'55.000" W
345.30 m
1163781
71887
YKA

Download Data

Hourly Data (December 2019)
Hourly Data Report for December 13, 2019
TIME Temp Definition
°C
Dew Point Definition
°C
Rel Hum Definition
%
Wind Dir Definition
10's deg

Wind Spd Definition
km/h
Visibility Definition
km
Stn Press Definition
kPa
Hmdx Definition


Wind Chill Definition


Weather Definition


00:00 0.4 -0.1 97 28 3 11.3 97.27     Rain
01:00 0.3 -0.1 97 30 4 16.1 97.34     Rain
02:00 0.6 0.2 97 36 2 11.3 97.42     Rain
03:00 0.3 -0.1 97 24 3 8.1 97.46     Rain
04:00 0.2 -0.1 97 36 1 8.1 97.47     Rain
05:00 0.3 -0.1 97 3 4 11.3 97.49     Rain
06:00 0.4 0.0 97 36 1 11.3 97.53     Rain
07:00 0.5 0.0 96 36 3 11.3 97.55     Cloudy
08:00 0.8 0.4 97 36 3 11.3 97.58     LegendNANA
09:00 0.7 0.2 97 10 3 11.3 97.61     LegendNANA
10:00 1.2 0.8 97 32 4 16.1 97.64     Cloudy
11:00 2.1 1.0 92 34 5 16.1 97.61     LegendNANA
12:00 2.4 1.2 91 22 4 16.1 97.57     LegendNANA
13:00 2.5 0.7 88 28 4 24.1 97.54     Cloudy
14:00 2.3 0.9 90 24 4 24.1 97.53     LegendNANA
15:00 2.2 0.6 89 23 4 24.1 97.53     LegendNANA
16:00 2.2 0.3 88 31 4 24.1 97.53     Cloudy
17:00 1.8 0.4 91 23 5 24.1 97.52     LegendNANA
18:00 1.4 0.1 91 36 2 24.1 97.49     LegendNANA
19:00 1.2 0.2 93 27 3 24.1 97.48     Cloudy
20:00 1.2 0.0 92 28 8 19.3 97.46     Rain Showers
21:00 1.7 -0.4 86 22 8 19.3 97.44     LegendNANA
22:00 1.5 -0.6 86 21 12 16.1 97.45     Cloudy
23:00 1.3 -0.4 88 26 5 16.1 97.45     LegendNANA

Notes on Data Quality.

Legend

  • E = Estimated
  • M = Missing
  • NA = Not Available
Date modified: